Regional Weather Roundup
Issued by NWS

Home | Current Version | Previous Version | Graphics & Text | Print | Product List | Glossary On
Versions: 1 2 3 4 5 6 7 8 9 10 11 12 13 14 15 16 17 18 19 20 21 22 23 24 25 26 27
000
ASUS45 KBOU 280207
RWRCO

WEATHER ROUNDUP FOR COLORADO
NATIONAL WEATHER SERVICE DENVER/BOULDER CO
800 PM MDT THU APR 27 2017

NOTE: "FAIR" INDICATES FEW OR NO CLOUDS BELOW 12000 FEET WITH NO
SIGNIFICANT WEATHER AND/OR OBSTRUCTIONS TO VISIBILITY.

COZ001>005-013-030-031-280300-
...NORTHWEST COLORADO...

CITY           SKY/WX    TMP DP  RH WIND       PRES   REMARKS
CRAIG          MOCLDY    36  28  73 SW9       29.72R
HAYDEN         FAIR      34  25  69 SW12G18   29.71R WCI  25
MEEKER         CLOUDY    38  30  73 W8        29.76R
MOUNT WERNER   NOT AVBL
STEAMBOAT SPGS MOCLDY    33  25  71 W14G20    29.72R WCI  24
WALDEN           N/A     30  25  80 SW9       29.70R WCI  22
$$

COZ006>008-011-280300-
...WEST CENTRAL VALLEYS...

CITY           SKY/WX    TMP DP  RH WIND       PRES   REMARKS
GRAND JUNCTION CLOUDY    51  16  24 W15G37    29.70R
MONTROSE       MOCLDY    47  20  34 N16G26    29.71R
EAGLE          MOCLDY    39  27  62 SW12      29.73R
RIFLE          MOCLDY    43  31  62 CALM      29.73R
DELTA          MOCLDY    52  17  25 NW18G28   29.69R
NUCLA          FAIR      48   5  17 W16G26    29.77R
$$

COZ017>023-064>068-280300-
...SOUTHWEST COLORADO...

CITY           SKY/WX    TMP DP  RH WIND       PRES   REMARKS
DURANGO        FAIR      46  13  26 NW14G22   29.70R
CORTEZ         FAIR      48  14  25 NW13      29.72R
PAGOSA SPRINGS FAIR      44  13  28 W8G16     29.72R
TELLURIDE      FAIR      35   4  27 W15G25    29.80R WCI  25
WOLF CREEK PAS CLOUDY    21  10  63 W8G20     29.82R WCI  12
$$

COZ009-010-012-014-032>034-037-058>063-280300-
...CENTRAL COLORADO...

CITY           SKY/WX    TMP DP  RH WIND       PRES   REMARKS
ASPEN          LGT SNOW  30  29  96 NE6       29.73S FOG     WCI  24
BUENA VISTA    CLOUDY    35  22  58 NW15      29.69R WCI  25
COPPER MTN     CLOUDY    21  16  79 MISG      29.73R
BERTHOUD PASS  CLOUDY    10   0  61 MISG      29.68R
COTTONWOOD PAS FLURRIES  32  18  55 W20G37    29.68R WCI  20
GUNNISON       FAIR      39  14  36 NW14      29.70R
KREMMLING      CLOUDY    41  21  45 NW6       29.72R
LEADVILLE      HVY SNOW  22  19  89 W7        29.71R VSB 1/4 WCI  13
MONARCH PASS   MOCLDY    19  14  79 W23G35    29.83R WCI   2
SALIDA         FAIR      41  17  37 NW8       29.75R
SUNLIGHT       SNOW      19  19 100 NW5       29.78S VSB 1/2 WCI  13
WILKERSON PASS MOCLDY    23  14  68 W10G20    29.71R WCI  12
$$

COZ069>075-280300-
...SAN LUIS VALLEY/SANGRE DE CRISTO MOUNTAINS...

CITY           SKY/WX    TMP DP  RH WIND       PRES   REMARKS
ALAMOSA        FAIR      44  14  29 W10G21    29.67R
LA VETA PASS   MOCLDY    30  16  55 W13G24    29.80R WCI  20
SAGUACHE       MOCLDY    37  16  41 NW18G26   29.70R
$$

COZ035-036-038>040-280300-
...NORTHERN COLORADO FRONT RANGE...

CITY           SKY/WX    TMP DP  RH WIND       PRES   REMARKS
DENVER INTL AP MOCLDY    42  34  73 SE12      29.59R
DMNS CITY PARK   N/A     46  35  64 E7G17     29.60R
AURORA         MOCLDY    43  36  76 E7        29.61R
FRONT RANGE AP NOT AVBL
ERIE MUNI ARPT FAIR      46  36  67 E7        29.59R
BOULDER MUN AP FAIR      48  19  32 W16G23    29.58R
CENTENNIAL     MOCLDY    43  34  70 E9        29.59R
BROOMFIELD     MOCLDY    46  36  66 CALM      29.61R
FORT COLLINS   FAIR      47  34  60 CALM      29.59R
LONGMONT       FAIR      48  29  48 E6        29.60R HAZE
$$

COZ041-046-047-076>085-087-088-280300-
...PIKES PEAK/PALMER DIVIDE AND SOUTHERN FOOTHILLS...

CITY           SKY/WX    TMP DP  RH WIND       PRES   REMARKS
COLO. SPRINGS  FAIR      41  33  73 NE10      29.62R
A. F. ACADEMY  MIX PCPN  38  33  82 N10       29.61R
SCHRIEVER AFB  FAIR      38  33  81 N16G24    29.60R
ELLICOTT       FAIR     N/A N/A N/A N18       29.58R
FALCON         LGT RAIN  36  34  91 N17G23    29.62R
FORT CARSON    FAIR      43  33  67 N14       29.60R
LIMON          FAIR      38  36  92 N9        29.59R
MONUMENT HILL  MOCLDY    32  32 100 SE3       29.63R
TRINIDAD       CLOUDY    53  27  36 NW14      29.57R
$$

COZ042>045-048>051-090-091-280300-
...NORTHEAST COLORADO...

CITY           SKY/WX    TMP DP  RH WIND       PRES   REMARKS
GREELEY ARPT   FAIR      43  39  86 NE5       29.59R
AKRON          CLOUDY    38  35  89 NE24G38   29.54S
BURLINGTON     NOT AVBL
WRAY           NOT AVBL
STERLING       CLOUDY    39  37  93 E17G26    29.53F
HOLYOKE        HVY RAIN  45  41  87 E17       29.60R
FORT MORGAN    FAIR      39  37  90 NE3       29.58R
$$

COZ086-089-092>099-280300-
...SOUTHEAST COLORADO...

CITY           SKY/WX    TMP DP  RH WIND       PRES   REMARKS
PUEBLO         FAIR      53  33  46 N13       29.55R
LA JUNTA       FAIR      52  39  61 N18       29.54R
LAMAR          CLOUDY    52  42  69 N8        29.50R
SPRINGFIELD      N/A     50  41  71 W12       29.49R
$$




USA.gov is the U.S. government's official web portal to all federal, state and local government web resources and services.